Temp
2 2 2 2 2 2 2 2 2 2 2 2 2 3 3 3 5 6 7 7 7 8 7 7 8 8 7 9 11 10 9 10 10 10 10 12 13 14 15 16 16 16 17 17 17 17 16
2 2 2 2 2 2 2 2 2 2 2 2 2 2 3 3 3 5 6 7 7 7 7 7 7 7 7 10 10 9 9 9 10 10 10 11 12 14 15 16 15 16 16 16 16 16 16
2 2 2 2 2 2 2 2 2 2 2 2 2 2 2 3 3 4 6 7 7 7 7 7 7 7 7 10 8 9 9 9 10 10 11 10 11 12 13 14 14 14 14 16 16 16 16
2 3 2 2 2 2 2 2 3 2 2 2 2 2 2 3 3 4 5 6 7 6 7 6 7 6 9 8 8 9 8 9 10 10 10 9 10 10 11 12 14 14 15 15 18 17 17
2 2 2 2 2 2 2 2 1 1 1 1 1 1 2 3 3 3 4 6 6 7 6 6 6 6 10 8 8 8 8 10 10 10 10 9 9 10 11 13 14 15 15 16 18 18 16
2 2 2 2 2 2 2 2 1 1 1 1 1 2 2 3 3 3 4 5 6 5 5 5 6 7 7 8 7 8 8 9 10 10 10 10 11 12 13 14 14 16 16 16 16 17 15
1 2 2 2 2 2 1 1 1 1 1 1 1 2 2 2 3 3 3 4 5 5 5 8 7 9 8 7 7 8 8 9 10 10 11 11 11 12 14 14 15 15 14 15 17 17 15
1 2 2 2 1 1 1 1 1 1 1 1 1 1 2 2 2 2 3 3 3 4 6 7 7 7 8 8 8 8 8 10 10 10 11 9 10 13 14 14 13 13 13 14 15 16 14
1 1 1 1 2 1 1 1 1 1 1 1 1 1 1 2 1 2 2 3 4 4 6 7 7 8 7 7 10 8 8 10 11 11 11 11 13 12 12 12 11 12 12 13 13 14 14
1 1 1 1 0 0 1 1 1 1 1 1 1 1 1 2 1 2 2 4 3 3 5 6 6 7 7 8 9 9 9 10 11 12 12 12 13 11 11 11 12 11 13 13 12 11 12
0 0 1 0 0 1 1 1 0 0 0 1 1 1 1 1 2 3 3 4 4 3 8 7 7 7 8 9 9 8 9 9 11 11 11 11 10 11 10 11 12 11 11 11 11 11 10
0 0 0 0 1 0 0 1 -0 -0 0 0 1 1 1 2 2 3 3 4 3 4 8 6 5 7 8 9 9 8 8 8 10 10 10 12 10 11 11 11 12 11 10 9 9 9 8
0 0 1 0 0 0 0 0 -0 0 0 0 1 2 2 2 3 2 3 3 4 6 8 6 6 7 8 8 8 8 7 7 8 7 7 9 10 10 11 10 10 10 8 10 9 8 10
-0 0 0 0 0 0 0 -0 -0 -0 -0 0 1 1 3 3 3 3 1 3 6 7 8 9 8 8 7 8 8 9 9 7 9 10 10 8 10 11 9 9 10 9 9 10 11 14 15
-0 0 0 0 0 0 -0 -0 -0 -0 -0 1 1 2 3 2 2 2 1 5 7 10 9 8 8 6 7 9 9 9 9 9 10 10 9 9 9 11 10 11 10 9 7 10 9 10 10
-0 0 -0 -0 0 0 -1 -1 -1 -0 0 0 1 2 3 2 2 2 3 5 8 10 9 9 8 9 7 8 8 8 8 11 10 11 12 9 8 10 10 10 10 10 11 7 7 8 11
-0 0 0 -0 -0 0 -1 -1 -1 -0 0 1 2 1 2 3 3 2 4 6 8 9 10 10 10 9 9 8 9 9 9 10 11 11 11 9 9 8 8 8 9 8 8 8 10 10 10
-0 0 -0 -1 -1 -1 -1 -1 -1 0 1 2 1 2 2 2 3 2 4 6 9 9 9 10 11 11 10 10 9 10 11 11 10 11 9 10 8 7 10 11 11 11 9 9 7 10 10
-1 0 -0 -1 -1 -1 -1 -1 1 1 1 2 1 2 3 3 4 4 4 7 9 8 9 10 10 11 11 10 9 10 10 9 9 10 10 10 7 7 10 10 11 9 10 11 10 8 7
-1 -0 -0 -0 -0 -1 -1 -1 1 1 2 1 1 3 3 4 4 7 5 7 8 8 10 11 10 11 11 10 11 10 9 9 9 10 8 10 9 8 11 11 11 8 10 10 6 7 9
-1 -1 -1 -1 -1 -0 -1 -1 1 2 3 2 4 4 4 4 6 9 9 8 8 9 9 10 10 11 11 10 9 9 10 9 8 8 8 9 7 9 10 10 10 10 9 9 7 6 7
-1 -1 -1 -1 -1 -0 -1 0 1 1 3 2 2 4 4 7 7 9 8 8 7 9 10 10 10 10 10 10 10 9 9 8 8 8 8 7 7 6 6 9 10 8 10 9 8 7 7
-1 -0 -1 -1 -1 -0 -0 -0 1 1 1 1 2 2 4 5 8 7 9 10 10 10 9 10 10 10 9 10 10 9 8 9 10 8 8 8 6 6 8 10 10 10 9 9 8 9 8
-1 -1 -1 -1 -1 -1 -0 -1 0 1 1 1 1 2 3 6 7 8 9 10 10 10 9 9 9 10 7 7 7 8 7 7 7 9 9 8 6 5 7 9 10 13 14 12 10 9 8
-1 -1 -1 -1 -1 -1 -1 -1 0 0 0 1 2 2 3 7 8 8 8 9 9 8 9 9 8 8 7 7 7 8 8 7 8 8 9 10 8 7 8 9 12 14 13 12 10 8 8
-2 -2 -2 -2 -1 -1 -1 -1 0 0 0 2 2 2 2 4 7 8 8 8 8 9 9 8 6 6 6 6 6 8 9 11 9 7 9 10 10 6 9 8 11 15 14 11 9 11 8
-1 -2 -2 -2 -1 -1 -2 -1 -0 -0 -0 1 2 2 2 4 6 7 8 9 9 9 7 6 5 5 5 6 7 8 10 12 11 10 8 7 6 6 7 7 11 15 13 11 12 12 10
-0 -2 -2 -1 -2 -2 -1 -1 -0 -1 -1 1 2 1 2 2 5 6 7 8 7 8 7 6 5 5 5 6 6 9 11 12 12 13 11 10 9 8 7 8 10 13 14 13 12 11 10
-0 -2 -2 -1 -2 -3 -3 -3 -2 -1 -1 0 1 1 3 3 5 6 7 7 7 7 7 5 6 6 6 6 6 9 10 11 12 12 12 11 13 10 10 12 15 14 13 11 8 8 8
Height
1514 1512 1507 1504 1500 1495 1492 1489 1485 1481 1477 1473 1470 1467 1465 1463 1461 1460 1461 1460 1461 1463 1462 1464 1464 1465 1469 1469 1467 1463 1464 1466 1469 1472 1475 1479 1481 1480 1479 1476 1476 1480 1478 1476 1478 1478 1480
1513 1508 1505 1501 1497 1493 1489 1485 1482 1478 1474 1471 1467 1464 1461 1459 1457 1456 1456 1457 1456 1459 1460 1462 1463 1464 1468 1466 1462 1463 1464 1466 1469 1471 1473 1477 1479 1479 1477 1475 1477 1475 1477 1476 1478 1476 1476
1510 1507 1504 1499 1496 1490 1487 1483 1479 1475 1471 1468 1464 1460 1456 1454 1452 1451 1450 1452 1453 1455 1456 1458 1461 1464 1465 1463 1459 1461 1464 1466 1468 1470 1472 1476 1478 1479 1480 1479 1479 1479 1479 1476 1473 1471 1471
1509 1505 1501 1497 1493 1488 1484 1480 1475 1471 1467 1463 1460 1456 1452 1450 1448 1447 1446 1447 1448 1450 1452 1456 1460 1463 1460 1457 1457 1459 1462 1466 1468 1471 1472 1473 1476 1480 1481 1481 1479 1476 1475 1473 1456 1464 1466
1508 1503 1499 1494 1490 1485 1481 1476 1472 1467 1463 1459 1455 1451 1448 1446 1444 1443 1442 1442 1440 1444 1449 1454 1458 1459 1456 1452 1455 1458 1462 1466 1468 1471 1472 1474 1477 1480 1482 1479 1473 1469 1465 1460 1456 1459 1464
1505 1500 1496 1492 1487 1482 1476 1473 1467 1463 1458 1454 1449 1446 1444 1443 1441 1440 1438 1437 1439 1439 1447 1453 1455 1459 1453 1451 1452 1456 1461 1466 1469 1471 1474 1475 1476 1475 1474 1472 1466 1456 1458 1458 1458 1456 1463
1502 1498 1493 1488 1482 1477 1471 1467 1463 1458 1455 1450 1446 1442 1441 1439 1437 1436 1436 1435 1437 1437 1438 1439 1441 1444 1445 1449 1452 1456 1460 1465 1468 1471 1469 1473 1473 1468 1463 1465 1462 1459 1465 1460 1454 1456 1459
1499 1494 1489 1485 1478 1472 1467 1462 1458 1454 1449 1446 1443 1439 1436 1435 1433 1433 1433 1432 1431 1433 1436 1438 1439 1443 1444 1447 1453 1455 1461 1465 1466 1468 1469 1477 1472 1463 1463 1465 1467 1468 1467 1464 1458 1457 1460
1497 1491 1485 1479 1472 1467 1462 1457 1453 1449 1444 1442 1438 1434 1431 1429 1428 1427 1427 1429 1430 1429 1431 1436 1437 1440 1444 1449 1448 1454 1459 1460 1462 1463 1465 1466 1461 1465 1464 1468 1471 1468 1468 1464 1463 1459 1457
1492 1487 1481 1475 1468 1462 1457 1453 1448 1444 1440 1437 1433 1428 1424 1424 1422 1419 1422 1423 1427 1429 1430 1433 1436 1439 1443 1446 1449 1452 1457 1461 1460 1457 1462 1463 1459 1466 1465 1467 1467 1468 1462 1464 1466 1469 1461
1488 1483 1477 1471 1464 1459 1453 1448 1443 1439 1435 1432 1428 1424 1420 1418 1413 1416 1418 1420 1424 1433 1410 1426 1432 1436 1439 1442 1445 1452 1457 1461 1457 1458 1463 1461 1463 1463 1466 1464 1465 1467 1468 1469 1468 1468 1467
1485 1479 1473 1467 1460 1454 1449 1444 1439 1435 1431 1427 1422 1417 1412 1409 1410 1413 1415 1418 1428 1432 1401 1421 1427 1432 1436 1439 1445 1451 1456 1461 1460 1460 1462 1457 1463 1463 1460 1463 1465 1469 1469 1472 1473 1476 1468
1483 1476 1469 1463 1458 1451 1446 1440 1435 1431 1426 1422 1416 1409 1403 1403 1405 1409 1413 1418 1431 1412 1410 1420 1421 1428 1432 1437 1443 1447 1453 1458 1456 1466 1464 1459 1458 1461 1463 1464 1466 1468 1475 1466 1468 1472 1449
1479 1473 1467 1460 1455 1449 1443 1437 1432 1426 1422 1417 1409 1401 1398 1399 1403 1406 1408 1417 1407 1402 1403 1410 1417 1426 1431 1436 1440 1442 1447 1454 1452 1450 1450 1457 1452 1453 1461 1463 1461 1466 1470 1461 1450 1430 1418
1478 1471 1464 1458 1452 1446 1441 1434 1429 1423 1418 1412 1403 1397 1397 1399 1402 1406 1415 1410 1396 1392 1402 1407 1420 1428 1430 1432 1434 1441 1443 1446 1446 1448 1453 1450 1454 1451 1456 1457 1461 1466 1473 1464 1465 1453 1449
1476 1468 1462 1456 1450 1444 1438 1432 1426 1420 1416 1408 1401 1399 1399 1402 1405 1408 1413 1404 1395 1395 1402 1408 1413 1418 1424 1429 1432 1437 1443 1437 1442 1442 1445 1450 1453 1450 1454 1459 1460 1459 1458 1469 1472 1460 1431
1473 1467 1461 1455 1448 1442 1436 1430 1424 1418 1412 1406 1403 1399 1403 1403 1410 1412 1410 1404 1401 1403 1405 1406 1410 1414 1418 1426 1429 1434 1436 1436 1437 1439 1446 1450 1453 1455 1458 1457 1451 1459 1461 1461 1451 1447 1431
1470 1465 1460 1454 1447 1441 1435 1429 1421 1415 1407 1401 1401 1403 1404 1409 1412 1415 1410 1406 1406 1409 1412 1411 1409 1408 1415 1422 1428 1428 1428 1432 1437 1440 1445 1449 1453 1454 1443 1442 1444 1443 1450 1453 1457 1435 1432
1469 1464 1458 1453 1446 1440 1434 1428 1420 1413 1406 1401 1404 1407 1407 1409 1408 1411 1409 1408 1409 1413 1412 1410 1412 1412 1415 1420 1428 1427 1430 1438 1440 1441 1441 1446 1454 1449 1438 1443 1440 1444 1442 1440 1438 1441 1430
1468 1463 1457 1451 1446 1439 1433 1426 1420 1412 1407 1403 1407 1408 1413 1411 1411 1408 1409 1410 1411 1414 1413 1411 1413 1413 1416 1420 1423 1428 1432 1439 1441 1442 1445 1445 1444 1443 1429 1427 1432 1442 1434 1433 1444 1433 1408
1467 1462 1457 1451 1445 1439 1434 1428 1421 1414 1409 1406 1406 1410 1412 1412 1411 1406 1407 1411 1412 1413 1415 1415 1418 1415 1416 1421 1425 1429 1431 1437 1441 1443 1446 1447 1445 1440 1435 1430 1428 1426 1426 1422 1427 1421 1416
1465 1461 1456 1451 1445 1439 1434 1428 1423 1418 1413 1412 1412 1411 1411 1408 1407 1406 1409 1411 1418 1416 1414 1416 1415 1419 1420 1420 1423 1427 1431 1436 1437 1443 1445 1447 1446 1445 1440 1427 1423 1421 1414 1412 1411 1406 1402
1463 1459 1455 1450 1446 1439 1434 1430 1425 1421 1418 1418 1417 1415 1413 1412 1410 1412 1410 1410 1412 1415 1420 1419 1420 1421 1424 1425 1428 1430 1433 1433 1433 1438 1441 1442 1447 1445 1427 1417 1414 1408 1406 1406 1402 1396 1394
1462 1457 1454 1449 1444 1440 1435 1431 1428 1425 1424 1422 1419 1418 1417 1414 1413 1411 1411 1413 1414 1416 1419 1422 1423 1423 1429 1428 1429 1431 1432 1435 1436 1434 1435 1437 1443 1445 1430 1419 1407 1391 1389 1389 1393 1391 1389
1461 1455 1453 1450 1444 1439 1436 1432 1428 1425 1424 1422 1420 1420 1420 1413 1412 1413 1415 1414 1417 1421 1422 1422 1425 1428 1429 1430 1431 1427 1428 1431 1424 1428 1429 1431 1435 1437 1431 1420 1400 1382 1385 1388 1389 1390 1386
1458 1454 1450 1446 1443 1439 1435 1432 1428 1425 1422 1421 1420 1420 1419 1416 1413 1414 1415 1416 1417 1418 1422 1424 1426 1428 1430 1431 1432 1422 1420 1410 1416 1423 1423 1426 1429 1438 1428 1426 1406 1379 1381 1386 1388 1379 1383
1458 1452 1447 1445 1441 1437 1434 1431 1427 1424 1421 1420 1420 1419 1418 1416 1414 1415 1415 1415 1417 1419 1422 1424 1426 1427 1430 1430 1430 1421 1412 1408 1409 1409 1420 1427 1433 1433 1432 1428 1402 1382 1384 1385 1379 1383 1381
1453 1450 1445 1440 1438 1435 1432 1429 1427 1424 1422 1420 1420 1419 1419 1416 1414 1415 1415 1415 1417 1418 1421 1425 1427 1427 1430 1429 1428 1417 1409 1403 1404 1399 1405 1411 1417 1422 1426 1422 1409 1388 1382 1384 1384 1380 1381
1451 1448 1443 1439 1435 1433 1429 1427 1425 1422 1420 1418 1418 1418 1417 1417 1416 1415 1415 1416 1417 1418 1420 1423 1424 1424 1426 1427 1427 1418 1409 1405 1399 1399 1402 1405 1399 1406 1407 1395 1383 1386 1386 1385 1385 1382 1381
Wind_Speed
17 19 20 21 21 22 22 22 24 23 24 24 23 22 22 20 17 17 18 24 15 13 11 11 10 8 9 9 11 6 7 11 13 18 18 17 16 16 13 13 9 13 16 13 16 17 17
18 19 21 24 24 23 23 23 24 23 25 24 22 23 20 20 21 18 17 20 17 14 12 11 10 8 8 13 11 9 6 3 10 17 20 16 8 11 8 9 11 2 12 16 17 18 19
18 20 22 24 23 25 24 23 24 25 25 24 25 24 22 20 21 21 15 20 23 16 12 12 10 9 11 10 4 10 10 5 7 13 18 14 10 8 5 5 11 9 13 15 20 22 15
20 20 26 24 23 26 24 28 30 27 27 26 25 26 24 22 19 21 16 23 26 17 14 13 11 8 7 14 9 9 10 5 6 9 10 12 11 5 3 2 5 8 11 13 3 6 10
23 24 24 23 25 27 26 28 28 28 26 26 27 27 23 22 19 17 20 19 25 21 16 14 9 7 5 6 8 10 11 10 10 9 9 10 12 4 4 8 10 12 9 14 10 7 7
23 25 25 27 27 28 27 27 28 28 26 26 25 21 17 18 18 17 20 20 17 23 19 12 6 5 9 7 9 10 13 12 12 14 12 9 8 8 10 11 9 12 15 13 11 5 8
24 24 27 30 27 31 29 27 28 26 26 26 25 20 16 19 19 15 15 14 15 13 26 8 13 3 13 10 10 11 15 17 12 14 7 11 8 13 16 15 16 9 9 12 10 7 15
27 27 28 29 30 31 31 28 28 28 26 25 25 23 20 21 18 19 17 11 12 3 9 10 12 9 10 12 8 13 17 15 15 13 9 5 14 15 10 9 12 13 14 15 14 13 12
28 29 32 31 32 32 29 29 27 26 25 26 22 26 26 21 24 22 19 20 20 6 4 17 16 14 10 11 9 19 22 15 15 16 16 11 1 4 12 10 11 13 14 13 14 16 18
27 30 31 31 33 32 32 30 27 27 26 25 23 28 21 25 27 21 19 16 20 20 3 10 10 9 12 10 6 16 21 11 6 14 12 12 8 4 8 12 11 11 9 10 11 9 6
28 28 30 32 33 32 30 28 27 25 25 24 26 32 29 19 16 12 7 17 21 13 6 15 11 9 19 13 19 14 18 7 10 8 8 4 6 12 12 12 8 6 3 5 8 10 14
31 28 29 30 33 30 29 27 26 25 27 24 28 32 36 20 16 16 8 17 20 3 4 7 8 14 18 17 9 15 17 5 5 7 11 11 3 5 6 4 8 4 3 6 7 6 8
29 33 33 32 32 29 27 26 27 26 25 25 33 37 22 11 9 20 17 26 5 6 11 9 9 14 17 15 11 13 13 10 8 6 9 10 16 7 9 6 5 8 1 2 4 5 8
29 33 33 32 30 28 28 27 28 30 24 26 34 29 6 7 7 16 10 5 8 8 8 8 15 18 10 17 9 14 15 11 13 12 3 7 6 17 11 12 5 12 8 4 5 7 11
28 31 31 29 28 27 28 28 30 28 26 32 37 5 1 10 11 17 11 4 1 13 11 13 17 6 7 17 7 10 13 11 11 13 6 5 3 1 9 7 10 6 8 10 11 16 11
27 28 27 30 28 28 28 28 30 25 29 32 23 4 2 12 19 18 2 1 2 7 15 17 6 7 9 15 9 11 13 10 8 15 11 2 2 5 7 6 10 12 0 2 4 5 10
27 27 26 28 28 29 28 29 30 26 30 32 13 3 4 15 20 5 2 2 6 19 14 4 9 10 11 15 10 14 14 4 14 11 13 5 3 5 5 11 13 11 9 7 8 7 6
26 27 26 26 28 28 28 31 30 30 37 26 2 2 10 19 3 1 1 3 17 12 2 2 7 7 16 17 10 10 8 1 7 8 10 9 2 5 12 8 8 14 14 17 7 8 8
24 27 26 25 28 28 29 30 27 35 33 8 4 4 9 2 3 1 2 7 8 5 1 3 5 2 7 14 6 7 4 6 9 11 9 10 5 3 2 1 8 10 15 18 17 16 20
25 26 27 26 27 28 28 30 26 32 20 5 3 2 3 2 1 4 4 6 6 4 7 9 9 12 11 12 5 7 5 4 8 10 6 5 5 8 8 10 9 6 15 16 13 8 20
25 25 25 24 23 27 27 29 25 31 17 8 4 3 2 2 3 5 5 5 5 4 3 4 4 5 5 4 5 4 5 6 7 7 6 5 7 13 18 20 19 17 21 22 19 21 15
22 25 25 23 23 25 25 27 24 27 17 19 6 3 2 3 6 7 2 9 9 2 2 3 5 6 3 3 2 5 7 5 4 7 8 4 3 2 14 18 14 16 20 18 18 18 15
20 22 21 22 20 24 24 25 23 21 26 9 14 7 5 2 6 5 6 10 8 6 4 6 6 5 1 2 1 2 3 2 3 8 11 5 2 2 5 10 19 9 4 9 12 12 7
21 20 22 21 19 20 22 22 22 15 18 16 11 6 4 2 5 7 6 6 7 5 5 5 4 1 4 4 3 2 6 9 11 10 9 6 4 2 5 12 3 1 3 10 7 7 10
20 19 21 20 19 18 19 20 20 14 15 15 6 4 3 2 6 7 4 7 5 5 2 3 4 5 4 2 1 2 3 3 11 18 17 13 5 2 3 6 16 5 9 7 2 4 8
18 18 18 18 17 17 18 20 18 15 12 11 5 8 4 3 6 6 5 8 6 6 3 3 6 4 1 0 1 3 4 3 3 3 6 13 10 3 3 5 4 6 12 5 5 1 2
18 18 17 16 16 15 17 18 16 16 12 11 3 9 4 5 2 6 9 7 4 5 2 2 3 2 8 3 2 3 3 0 3 4 5 4 3 6 7 4 8 9 11 2 6 6 11
17 18 17 17 16 17 17 16 14 14 13 9 5 7 8 4 1 4 1 2 5 6 3 5 3 1 3 3 3 3 5 3 3 2 5 7 6 4 4 5 6 6 9 5 8 12 8
16 17 18 19 17 16 16 14 14 14 13 8 4 9 7 3 3 2 5 4 8 5 8 10 1 4 3 3 3 4 4 3 5 2 3 4 6 2 7 4 10 14 10 10 7 12 6
Wind_Direction
359 352 352 348 346 341 337 338 335 337 334 333 323 318 315 287 282 272 255 247 242 263 249 248 239 208 186 212 241 243 206 214 217 205 193 191 206 210 221 210 200 232 254 246 263 259 258
349 344 347 343 338 337 333 333 332 332 329 327 323 313 311 309 280 274 251 248 231 245 238 235 232 200 206 227 222 226 187 185 199 206 201 198 214 231 266 226 215 332 262 267 258 258 256
340 340 334 329 334 335 332 328 326 325 323 323 323 310 315 305 302 270 253 248 234 227 227 224 223 197 224 214 200 210 193 176 176 193 202 197 223 183 195 256 240 264 263 262 251 246 240
335 331 329 331 331 329 326 324 325 319 320 319 316 306 307 304 294 269 278 248 232 217 216 209 209 195 238 223 209 199 184 172 162 185 191 187 187 188 258 133 215 233 240 257 179 227 240
329 328 328 329 330 327 324 319 320 321 315 315 309 303 303 303 294 285 273 229 239 206 199 195 185 194 230 227 192 186 172 173 160 162 170 178 193 198 190 232 232 217 253 221 236 205 250
326 326 327 324 321 322 314 324 318 318 316 317 314 310 301 301 300 286 271 231 252 185 176 160 178 198 216 197 168 166 170 171 156 145 136 157 185 204 208 212 222 237 218 244 261 168 230
329 326 323 324 322 319 318 319 320 319 320 317 321 312 308 306 298 295 285 263 228 180 170 178 193 151 140 138 138 160 165 166 170 173 180 191 208 215 221 224 257 281 291 282 277 280 279
327 327 323 322 320 320 320 321 322 318 315 322 317 313 304 298 297 289 278 280 219 35 173 211 171 128 144 147 136 154 161 171 187 193 174 170 231 233 238 256 244 253 261 264 277 282 291
329 326 324 320 319 320 323 324 320 316 318 323 312 311 304 287 294 285 262 258 217 276 235 188 171 170 160 167 166 170 177 193 195 205 195 212 111 262 226 221 234 241 257 272 283 306 294
327 325 328 326 324 323 327 325 322 321 326 317 310 320 308 290 282 267 248 255 220 238 216 157 192 200 169 163 172 173 178 173 197 213 198 235 213 198 204 225 224 261 267 279 283 290 278
333 331 336 332 328 332 329 327 324 324 323 313 312 319 317 307 297 229 241 194 200 226 204 143 146 163 174 173 130 178 177 193 202 201 172 217 218 215 226 227 211 242 24 282 290 288 309
334 330 328 331 335 334 332 333 328 326 324 316 314 319 317 302 263 228 225 179 174 239 183 135 133 171 163 183 149 149 175 206 243 218 222 259 149 224 215 202 221 67 269 274 269 270 258
330 330 334 333 337 337 336 332 333 328 324 315 321 320 305 256 229 193 190 147 167 247 161 142 161 163 163 172 155 164 172 185 181 171 215 229 230 198 230 223 200 209 202 270 220 208 248
337 332 339 340 340 341 339 337 335 334 325 323 323 323 303 211 179 189 153 127 233 132 142 159 141 151 168 161 182 177 175 195 214 224 161 201 186 200 171 216 197 208 203 233 272 257 303
337 337 343 344 344 344 342 338 340 331 333 329 328 341 274 179 174 169 166 169 231 147 134 142 135 133 135 171 158 171 195 195 212 206 208 182 243 209 175 193 206 171 211 243 280 281 276
336 343 347 346 347 346 343 344 341 339 337 332 343 340 71 156 152 144 140 222 17 112 139 142 126 181 159 172 162 176 180 204 201 207 219 24 248 179 172 214 226 219 359 170 205 263 267
337 343 349 343 349 346 347 346 343 342 337 341 344 336 89 156 157 115 204 65 107 133 133 183 155 157 172 168 183 179 183 124 196 188 194 186 214 143 155 209 204 201 232 230 283 238 275
341 344 347 347 348 350 349 346 347 349 347 348 20 81 123 151 89 114 184 88 134 134 103 125 137 150 152 165 166 173 175 99 187 186 183 192 183 248 243 238 223 233 220 226 233 235 235
342 345 346 348 345 351 351 349 356 1 358 55 59 73 161 175 132 226 271 101 123 148 63 142 125 128 141 155 154 176 189 109 168 179 175 166 208 283 167 152 239 232 248 252 249 264 255
344 344 345 350 349 352 352 353 360 11 19 27 110 95 85 8 331 151 94 86 109 56 69 90 107 127 126 146 78 160 162 143 174 199 86 209 222 240 276 317 327 229 252 252 245 257 268
342 345 346 348 348 352 356 357 4 15 26 34 38 65 153 164 166 153 132 132 119 142 98 109 107 133 122 136 155 179 165 137 158 183 184 202 256 259 265 278 284 280 279 278 268 259 256
344 347 348 346 352 353 358 359 8 16 34 48 33 358 313 130 162 161 152 154 176 113 132 122 129 139 104 94 54 170 172 181 201 172 186 230 264 280 284 264 264 278 278 279 271 269 267
346 344 343 341 350 352 358 0 8 17 25 15 2 6 311 320 171 159 195 169 176 155 54 67 114 141 121 16 252 130 198 226 248 178 196 209 213 277 272 325 308 278 242 279 297 292 276
341 344 341 340 346 351 356 360 5 19 19 1 353 347 320 164 200 203 179 171 176 204 116 105 117 128 69 65 76 175 201 230 258 241 228 201 176 243 294 312 267 21 335 285 261 288 337
339 351 340 336 341 348 354 354 2 3 11 3 23 347 303 271 191 211 200 200 157 138 156 136 118 105 99 70 350 220 188 235 228 228 229 222 203 269 275 303 279 287 21 331 302 293 320
341 348 344 340 343 346 346 347 356 358 358 7 55 12 306 296 216 185 189 189 190 206 165 134 112 159 339 225 210 252 222 235 153 138 238 223 225 195 321 296 291 344 13 15 150 343 58
339 343 342 339 332 334 334 340 348 355 352 0 359 355 322 284 120 180 196 188 176 173 81 102 148 176 203 183 234 244 249 346 220 188 155 160 171 215 229 257 275 295 331 112 313 349 351
335 335 337 339 329 324 325 332 342 350 345 349 327 348 4 312 200 225 242 167 172 204 160 142 127 138 159 210 224 239 260 222 243 195 174 183 180 190 185 223 267 9 317 350 336 312 325
329 327 334 339 335 334 333 335 333 324 337 338 307 342 339 272 298 268 228 231 208 211 172 171 212 145 191 216 214 264 239 240 251 236 200 225 214 183 204 234 312 314 297 314 330 304 328